Weather in Zaamin

Uzbekistan     39°57′42″N   68°23′47″E
temp.,
°C
wind,
m/s
gust,
m/s
humid.,
%
clouds,
%
prec.,
mm/h
press.,
hPa
HPBL,
m
21 june, mon
mon2123:00+21sw43260 0.0 101140
02:00+18wsw46260 0.0 101277
05:00+17sw34260 0.0 101246
08:00+22wnw44200 0.0 1013440
11:00+27nw43170 0.0 10131057
14:00+30nw44140 0.0 10111718
17:00+31nw45110 0.0 10112158
20:00+22nnw11180 0.0 101211
22 june, tue
tue2223:00+22s32170 0.0 101311
02:00+23s44150 0.0 101136
05:00+22s33180 0.0 101117
08:00+28nne22150 0.0 1012390
11:00+32n43170 0.0 10112414
14:00+34nnw54140 0.0 10092930
17:00+34nnw75150 0.0 10093002
20:00+24nne22240 0.0 101117
23 june, wed
wed2323:00+22wsw22250 0.0 101111
02:00+18w11290 0.0 101111
05:00+18wsw33290 0.0 101220
08:00+22w44260 0.0 1013412
11:00+27nw33190 0.0 10121059
14:00+31nnw32150 0.0 10111594
17:00+32nnw33130 0.0 10101902
20:00+24n22220 0.0 101011
24 june, thu
thu2423:00+23sw33220 0.0 101115
02:00+21sw44250 0.0 101135
05:00+20sw33260 0.0 101118
08:00+25wnw44200 0.0 1011419
11:00+29nw44160 0.0 10101300
14:00+33nw44130 0.0 10082049
17:00+33nw34140 0.0 10082589
20:00+25nnw11250 0.0 100811
25 june, fri
fri2523:00+25s33220 0.0 100823
02:00+21sw32300 0.0 100813
05:00+19wsw44430 0.0 101059
08:00+24wnw44400 0.0 1011553
11:00+28nw43280 0.0 10091375
14:00+31nnw54240 0.0 10072147
17:00+31nnw55170 0.0 10072126
20:00+24wnw33160 0.0 100916